Location: Wapato
(46.4478°N, 120.4212°W)
Time: 22:42:54
(UTC+00:00)

Vanguard 1 Rocket - Pass Details

Date: 13 May 2026
Orbit: 656 x 4211 km, 34.3° (Epoch: 7 June)

Event Time Altitude Azimuth Distance (km) Brightness Sun altitude
Rises 03:49:04 0° 271° (W) 5,946 12.7 -4.4°
Reaches altitude 10° 03:52:30 10° 265° (W) 5,329 12.2 -4.9°
Maximum altitude 04:08:59 49° 198° (SSW) 4,368 10.7 -7.2°
Enters shadow 04:32:11 11° 134° (SE) 7,292 11.3 -10.3°
